Time,TemperatureF,DewpointF,PressureIn,WindDirection,WindDirectionDegrees,WindSpeedMPH,WindSpeedGustMPH,Humidity,HourlyPrecipIn,Conditions,Clouds,dailyrainin,SolarRadiationWatts/m^2,SoftwareType,DateUTC
2013-07-11 00:11:00,55.0,44.0,-100.00,ESE,111,3.0,7.0,67,0.00,,,0.00,0.000000,,2013-07-11 06:11:00,
2013-07-11 00:22:00,55.0,44.0,-100.00,ESE,111,3.0,7.0,67,0.00,,,0.00,0.000000,,2013-07-11 06:22:00,
2013-07-11 00:32:00,55.0,44.0,-100.00,ESE,111,3.0,7.0,67,0.00,,,0.00,0.000000,,2013-07-11 06:32:00,
2013-07-11 00:43:00,55.0,44.0,-100.00,ESE,111,3.0,7.0,67,0.00,,,0.00,0.000000,,2013-07-11 06:43:00,
2013-07-11 00:52:00,52.0,44.0,-100.00,ESE,106,2.0,5.0,75,0.00,,,0.00,0.000000,,2013-07-11 06:52:00,
2013-07-11 01:22:00,52.0,44.0,-100.00,ESE,106,2.0,5.0,75,0.00,,,0.00,0.000000,,2013-07-11 07:22:00,
2013-07-11 01:32:00,52.0,44.0,-100.00,ESE,106,2.0,5.0,75,0.00,,,0.00,0.000000,,2013-07-11 07:32:00,
2013-07-11 01:45:00,52.0,44.0,-100.00,ESE,106,2.0,5.0,75,0.00,,,0.00,0.000000,,2013-07-11 07:45:00,
2013-07-11 01:52:00,50.0,43.0,-100.00,South,175,1.0,6.0,76,0.00,,,0.00,0.000000,,2013-07-11 07:52:00,
2013-07-11 02:22:00,50.0,43.0,-100.00,South,175,1.0,6.0,76,0.00,,,0.00,0.000000,,2013-07-11 08:22:00,
2013-07-11 02:34:00,50.0,43.0,-100.00,South,175,1.0,6.0,76,0.00,,,0.00,0.000000,,2013-07-11 08:34:00,
2013-07-11 02:43:00,50.0,43.0,-100.00,South,175,1.0,6.0,76,0.00,,,0.00,0.000000,,2013-07-11 08:43:00,
2013-07-11 02:52:00,50.0,45.0,-100.00,SSE,154,2.0,4.0,83,0.00,,,0.00,0.000000,,2013-07-11 08:52:00,
2013-07-11 03:21:00,50.0,45.0,-100.00,SSE,154,2.0,4.0,83,0.00,,,0.00,0.000000,,2013-07-11 09:21:00,
2013-07-11 03:33:00,50.0,45.0,-100.00,SSE,154,2.0,4.0,83,0.00,,,0.00,0.000000,,2013-07-11 09:33:00,
2013-07-11 03:43:00,50.0,45.0,-100.00,SSE,154,2.0,4.0,83,0.00,,,0.00,0.000000,,2013-07-11 09:43:00,
2013-07-11 03:52:00,41.0,39.0,-100.00,WSW,258,0.0,2.0,94,0.00,,,0.00,0.000000,,2013-07-11 09:52:00,
2013-07-11 04:33:00,41.0,39.0,-100.00,WSW,258,0.0,2.0,94,0.00,,,0.00,0.000000,,2013-07-11 10:33:00,
2013-07-11 04:43:00,41.0,39.0,-100.00,WSW,258,0.0,2.0,94,0.00,,,0.00,0.000000,,2013-07-11 10:43:00,
2013-07-11 04:52:00,38.0,37.0,-100.00,NW,315,1.0,4.0,96,-99.99,,,0.00,0.000000,,2013-07-11 10:52:00,
2013-07-11 05:32:00,38.0,37.0,-100.00,NW,315,1.0,4.0,96,-99.99,,,0.00,0.000000,,2013-07-11 11:32:00,
2013-07-11 05:43:00,38.0,37.0,-100.00,NW,315,1.0,4.0,96,-99.99,,,0.00,0.000000,,2013-07-11 11:43:00,
2013-07-11 05:52:00,37.0,36.0,-100.00,WNW,286,0.0,2.0,97,-99.99,,,-99.99,2.000000,,2013-07-11 11:52:00,
2013-07-11 06:33:00,37.0,36.0,-100.00,WNW,286,0.0,2.0,97,-99.99,,,-99.99,2.000000,,2013-07-11 12:33:00,
2013-07-11 06:43:00,37.0,36.0,-100.00,WNW,286,0.0,2.0,97,-99.99,,,-99.99,2.000000,,2013-07-11 12:43:00,
2013-07-11 06:52:00,42.0,40.0,-100.00,West,272,0.0,2.0,92,-99.99,,,-99.99,83.000000,,2013-07-11 12:52:00,
2013-07-11 07:23:00,42.0,40.0,-100.00,West,272,0.0,2.0,92,-99.99,,,-99.99,83.000000,,2013-07-11 13:23:00,
2013-07-11 07:34:00,42.0,40.0,-100.00,West,272,0.0,2.0,92,-99.99,,,-99.99,83.000000,,2013-07-11 13:34:00,
2013-07-11 07:45:00,42.0,40.0,-100.00,West,272,0.0,2.0,92,-99.99,,,-99.99,83.000000,,2013-07-11 13:45:00,
2013-07-11 07:52:00,56.0,47.0,-100.00,WNW,300,2.0,3.0,73,-99.99,,,0.00,276.000000,,2013-07-11 13:52:00,
2013-07-11 08:23:00,56.0,47.0,-100.00,WNW,300,2.0,3.0,73,-99.99,,,0.00,276.000000,,2013-07-11 14:23:00,
2013-07-11 08:35:00,56.0,47.0,-100.00,WNW,300,2.0,3.0,73,-99.99,,,0.00,276.000000,,2013-07-11 14:35:00,
2013-07-11 08:45:00,56.0,47.0,-100.00,WNW,300,2.0,3.0,73,-99.99,,,0.00,276.000000,,2013-07-11 14:45:00,
2013-07-11 08:52:00,70.0,41.0,-100.00,WSW,245,5.0,8.0,35,0.00,,,0.00,480.000000,,2013-07-11 14:52:00,
2013-07-11 09:24:00,70.0,41.0,-100.00,WSW,245,5.0,8.0,35,0.00,,,0.00,480.000000,,2013-07-11 15:24:00,
2013-07-11 09:36:00,70.0,41.0,-100.00,WSW,245,5.0,8.0,35,0.00,,,0.00,480.000000,,2013-07-11 15:36:00,
2013-07-11 09:45:00,70.0,41.0,-100.00,WSW,245,5.0,8.0,35,0.00,,,0.00,480.000000,,2013-07-11 15:45:00,
2013-07-11 09:52:00,73.0,38.0,-100.00,SW,226,9.0,15.0,28,0.00,,,0.00,688.000000,,2013-07-11 15:52:00,
2013-07-11 10:24:00,73.0,38.0,-100.00,SW,226,9.0,15.0,28,0.00,,,0.00,688.000000,,2013-07-11 16:24:00,
2013-07-11 10:34:00,73.0,38.0,-100.00,SW,226,9.0,15.0,28,0.00,,,0.00,688.000000,,2013-07-11 16:34:00,
2013-07-11 10:45:00,73.0,38.0,-100.00,SW,226,9.0,15.0,28,0.00,,,0.00,688.000000,,2013-07-11 16:45:00,
2013-07-11 10:52:00,76.0,33.0,-100.00,WSW,237,10.0,18.0,21,0.00,,,0.00,874.000000,,2013-07-11 16:52:00,
2013-07-11 11:26:00,76.0,33.0,-100.00,WSW,237,10.0,18.0,21,0.00,,,0.00,874.000000,,2013-07-11 17:26:00,
2013-07-11 11:45:00,76.0,33.0,-100.00,WSW,237,10.0,18.0,21,0.00,,,0.00,874.000000,,2013-07-11 17:45:00,
2013-07-11 12:24:00,78.0,30.0,-100.00,WSW,237,10.0,20.0,17,0.00,,,0.00,1014.000000,,2013-07-11 18:24:00,
2013-07-11 12:35:00,78.0,30.0,-100.00,WSW,237,10.0,20.0,17,0.00,,,0.00,1014.000000,,2013-07-11 18:35:00,
2013-07-11 12:45:00,78.0,30.0,-100.00,WSW,237,10.0,20.0,17,0.00,,,0.00,1014.000000,,2013-07-11 18:45:00,
2013-07-11 12:52:00,81.0,29.0,-100.00,SW,229,5.0,16.0,15,0.00,,,0.00,1079.000000,,2013-07-11 18:52:00,
2013-07-11 13:13:00,81.0,29.0,-100.00,SW,229,5.0,16.0,15,0.00,,,0.00,1079.000000,,2013-07-11 19:13:00,
2013-07-11 13:23:00,81.0,29.0,-100.00,SW,229,5.0,16.0,15,0.00,,,0.00,1079.000000,,2013-07-11 19:23:00,
2013-07-11 13:44:00,81.0,29.0,-100.00,SW,229,5.0,16.0,15,0.00,,,0.00,1079.000000,,2013-07-11 19:44:00,
2013-07-11 14:25:00,81.0,29.0,-100.00,WSW,245,7.0,16.0,15,0.00,,,0.00,1109.000000,,2013-07-11 20:25:00,
2013-07-11 14:37:00,81.0,29.0,-100.00,WSW,245,7.0,16.0,15,0.00,,,0.00,1109.000000,,2013-07-11 20:37:00,
2013-07-11 14:46:00,81.0,29.0,-100.00,WSW,245,7.0,16.0,15,0.00,,,0.00,1109.000000,,2013-07-11 20:46:00,
2013-07-11 15:14:00,82.0,30.0,-100.00,SW,222,8.0,20.0,15,0.00,,,0.00,880.000000,,2013-07-11 21:14:00,
2013-07-11 15:23:00,82.0,30.0,-100.00,SW,222,8.0,20.0,15,0.00,,,0.00,880.000000,,2013-07-11 21:23:00,
2013-07-11 15:35:00,82.0,30.0,-100.00,SW,222,8.0,20.0,15,0.00,,,0.00,880.000000,,2013-07-11 21:35:00,
2013-07-11 15:44:00,82.0,30.0,-100.00,SW,222,8.0,20.0,15,0.00,,,0.00,880.000000,,2013-07-11 21:44:00,
2013-07-11 15:52:00,83.0,31.0,-100.00,WSW,257,10.0,21.0,15,0.00,,,0.00,898.000000,,2013-07-11 21:52:00,
2013-07-11 16:24:00,83.0,31.0,-100.00,WSW,257,10.0,21.0,15,0.00,,,0.00,898.000000,,2013-07-11 22:24:00,
2013-07-11 16:33:00,83.0,31.0,-100.00,WSW,257,10.0,21.0,15,0.00,,,0.00,898.000000,,2013-07-11 22:33:00,
2013-07-11 16:45:00,83.0,31.0,-100.00,WSW,257,10.0,21.0,15,0.00,,,0.00,898.000000,,2013-07-11 22:45:00,
2013-07-11 16:52:00,84.0,28.0,-100.00,WSW,258,7.0,18.0,13,0.00,,,-99.99,735.000000,,2013-07-11 22:52:00,
2013-07-11 17:24:00,84.0,28.0,-100.00,WSW,258,7.0,18.0,13,0.00,,,-99.99,735.000000,,2013-07-11 23:24:00,
2013-07-11 17:35:00,84.0,28.0,-100.00,WSW,258,7.0,18.0,13,0.00,,,-99.99,735.000000,,2013-07-11 23:35:00,
2013-07-11 17:46:00,84.0,28.0,-100.00,WSW,258,7.0,18.0,13,0.00,,,-99.99,735.000000,,2013-07-11 23:46:00,
2013-07-11 17:52:00,78.0,28.0,-100.00,SW,227,7.0,15.0,16,0.00,,,0.00,490.000000,,2013-07-11 23:52:00,
2013-07-11 18:24:00,78.0,28.0,-100.00,SW,227,7.0,15.0,16,0.00,,,0.00,490.000000,,2013-07-12 00:24:00,
2013-07-11 18:35:00,78.0,28.0,-100.00,SW,227,7.0,15.0,16,0.00,,,0.00,490.000000,,2013-07-12 00:35:00,
2013-07-11 18:43:00,78.0,28.0,-100.00,SW,227,7.0,15.0,16,0.00,,,0.00,490.000000,,2013-07-12 00:43:00,
2013-07-11 18:52:00,74.0,34.0,-100.00,WSW,257,3.0,11.0,23,0.00,,,0.00,199.000000,,2013-07-12 00:52:00,
2013-07-11 19:26:00,74.0,34.0,-100.00,WSW,257,3.0,11.0,23,0.00,,,0.00,199.000000,,2013-07-12 01:26:00,
2013-07-11 19:35:00,74.0,34.0,-100.00,WSW,257,3.0,11.0,23,0.00,,,0.00,199.000000,,2013-07-12 01:35:00,
2013-07-11 19:45:00,74.0,34.0,-100.00,WSW,257,3.0,11.0,23,0.00,,,0.00,199.000000,,2013-07-12 01:45:00,
2013-07-11 19:52:00,72.0,34.0,-100.00,WNW,289,8.0,15.0,25,0.00,,,0.00,132.000000,,2013-07-12 01:52:00,
2013-07-11 20:15:00,72.0,34.0,-100.00,WNW,289,8.0,15.0,25,0.00,,,0.00,132.000000,,2013-07-12 02:15:00,
2013-07-11 20:24:00,72.0,34.0,-100.00,WNW,289,8.0,15.0,25,0.00,,,0.00,132.000000,,2013-07-12 02:24:00,
2013-07-11 20:35:00,72.0,34.0,-100.00,WNW,289,8.0,15.0,25,0.00,,,0.00,132.000000,,2013-07-12 02:35:00,
2013-07-11 20:44:00,72.0,34.0,-100.00,WNW,289,8.0,15.0,25,0.00,,,0.00,132.000000,,2013-07-12 02:44:00,
2013-07-11 21:52:00,59.0,40.0,-100.00,East,101,0.0,0.0,49,0.00,,,0.00,0.000000,,2013-07-12 03:52:00,
2013-07-11 22:11:00,59.0,40.0,-100.00,East,101,0.0,0.0,49,0.00,,,0.00,0.000000,,2013-07-12 04:11:00,
2013-07-11 22:22:00,59.0,40.0,-100.00,East,101,0.0,0.0,49,0.00,,,0.00,0.000000,,2013-07-12 04:22:00,
2013-07-11 22:32:00,59.0,40.0,-100.00,East,101,0.0,0.0,49,0.00,,,0.00,0.000000,,2013-07-12 04:32:00,
2013-07-11 22:43:00,59.0,40.0,-100.00,East,101,0.0,0.0,49,0.00,,,0.00,0.000000,,2013-07-12 04:43:00,
2013-07-11 22:52:00,66.0,41.0,-100.00,SSW,211,8.0,21.0,40,0.00,,,0.00,0.000000,,2013-07-12 04:52:00,
2013-07-11 23:11:00,66.0,41.0,-100.00,SSW,211,8.0,21.0,40,0.00,,,0.00,0.000000,,2013-07-12 05:11:00,
2013-07-11 23:22:00,66.0,41.0,-100.00,SSW,211,8.0,21.0,40,0.00,,,0.00,0.000000,,2013-07-12 05:22:00,
2013-07-11 23:32:00,66.0,41.0,-100.00,SSW,211,8.0,21.0,40,0.00,,,0.00,0.000000,,2013-07-12 05:32:00,
2013-07-11 23:43:00,66.0,41.0,-100.00,SSW,211,8.0,21.0,40,0.00,,,0.00,0.000000,,2013-07-12 05:43:00,
2013-07-11 23:52:00,64.0,41.0,-100.00,SW,225,7.0,18.0,43,0.00,,,0.00,0.000000,,2013-07-12 05:52:00,